San Diego Weather Center

Moon Phase Calendar



Online Cameras

 


      

Current Conditions in Coronado
5/29/2024 2:15:07 PM

69°F
Feels Like 69
Clouds
Humidity
71%
Pressure
30.03"
Wind
11.5 mph (SSW)
Dew Point
59°F
UV Index
9/10 (Very High)
Visibility
6 mi

Hourly Forecast

Date & Time Wed, May 29
2:00 PM
Wed, May 29
3:00 PM
Wed, May 29
4:00 PM
Wed, May 29
5:00 PM
Wed, May 29
6:00 PM
Wed, May 29
7:00 PM
Wed, May 29
8:00 PM
Wed, May 29
9:00 PM
Wed, May 29
10:00 PM
Wed, May 29
11:00 PM
Thu, May 30
12:00 AM
Thu, May 30
1:00 AM
Thu, May 30
2:00 AM
Thu, May 30
3:00 AM
Thu, May 30
4:00 AM
Thu, May 30
5:00 AM
Thu, May 30
6:00 AM
Thu, May 30
7:00 AM
Thu, May 30
8:00 AM
Thu, May 30
9:00 AM
Thu, May 30
10:00 AM
Thu, May 30
11:00 AM
Thu, May 30
12:00 PM
Thu, May 30
1:00 PM
Thu, May 30
2:00 PM
Thu, May 30
3:00 PM
Thu, May 30
4:00 PM
Thu, May 30
5:00 PM
Thu, May 30
6:00 PM
Thu, May 30
7:00 PM
Thu, May 30
8:00 PM
Thu, May 30
9:00 PM
Thu, May 30
10:00 PM
Thu, May 30
11:00 PM
Fri, May 31
12:00 AM
Fri, May 31
1:00 AM
Fri, May 31
2:00 AM
Fri, May 31
3:00 AM
Fri, May 31
4:00 AM
Fri, May 31
5:00 AM
Fri, May 31
6:00 AM
Fri, May 31
7:00 AM
Fri, May 31
8:00 AM
Fri, May 31
9:00 AM
Fri, May 31
10:00 AM
Fri, May 31
11:00 AM
Fri, May 31
12:00 PM
Fri, May 31
1:00 PM
Condition
Clouds

Clouds

Clouds

Clouds

Clouds

Clear

Clear

Clear

Clear

Clear

Clear

Clear

Clear

Clear

Clear

Clear

Clouds

Clouds

Clouds

Clouds

Clouds

Clouds

Clear

Clear

Clear

Clear

Clear

Clear

Clear

Clear

Clear

Clear

Clear

Clear

Clear

Clear

Clear

Clear

Clear

Clear

Clear

Clear

Clear

Clear

Clear

Clear

Clear

Clear
Temperature 69°F68°F67°F66°F65°F63°F62°F62°F62°F61°F61°F61°F61°F60°F60°F60°F60°F59°F60°F62°F63°F64°F66°F67°F66°F65°F65°F65°F64°F64°F63°F63°F62°F62°F62°F61°F61°F61°F61°F60°F60°F61°F62°F63°F65°F66°F66°F67°F
Feels Like 69°F68°F67°F66°F64°F62°F61°F61°F61°F61°F61°F61°F60°F60°F60°F60°F59°F59°F60°F61°F62°F64°F65°F66°F65°F64°F64°F64°F64°F63°F62°F62°F62°F61°F61°F61°F61°F60°F60°F60°F60°F60°F61°F63°F64°F65°F66°F66°F
Cloudiness 75%60%45%30%15%0%0%0%0%0%0%0%0%0%0%0%17%38%52%56%53%46%0%2%0%0%0%0%0%0%0%0%0%0%0%0%0%0%0%0%1%1%1%1%0%0%0%2%
Visibility 6 mi6 mi6 mi6 mi6 mi6 mi6 mi6 mi6 mi6 mi6 mi6 mi6 mi6 mi6 mi6 mi6 mi6 mi6 mi6 mi6 mi6 mi5 mi5 mi6 mi6 mi6 mi6 mi6 mi6 mi6 mi6 mi6 mi6 mi6 mi6 mi6 mi6 mi6 mi6 mi6 mi6 mi6 mi6 mi6 mi6 mi6 mi6 mi
Precipitation 0%0%0%0%0%0%0%0%0%0%0%0%0%0%0%0%0%0%0%0%0%0%0%0%0%0%0%0%0%0%0%0%0%0%0%0%0%0%0%0%0%0%0%0%0%0%0%0%
Humidity 70%68%68%68%70%73%75%77%78%78%79%80%82%83%84%85%85%84%80%75%71%67%64%62%64%65%65%66%67%70%72%74%75%77%79%80%82%83%84%84%85%84%80%76%72%69%68%68%
Dew Point 59°F57°F56°F55°F55°F54°F54°F54°F54°F54°F54°F55°F55°F55°F55°F55°F55°F54°F54°F54°F53°F53°F53°F52°F53°F53°F53°F53°F53°F53°F54°F54°F54°F54°F55°F55°F55°F55°F55°F55°F56°F55°F55°F55°F55°F55°F55°F55°F
Pressure 30.03"30.03"30"30"29.97"29.97"29.97"29.97"29.97"29.97"29.97"29.97"29.94"29.94"29.94"29.94"29.94"29.97"29.97"29.97"29.97"29.97"29.97"29.94"29.94"29.94"29.91"29.91"29.91"29.91"29.91"29.91"29.91"29.91"29.91"29.88"29.88"29.88"29.88"29.88"29.88"29.88"29.91"29.91"29.91"29.91"29.91"29.91"
Wind Speed 9.4 mph8.7 mph8.5 mph8.1 mph7.4 mph6.2 mph5.4 mph4.7 mph4.4 mph3.9 mph3.1 mph3.7 mph3 mph3 mph3.5 mph4.9 mph5.7 mph6.3 mph6.6 mph7.1 mph7.1 mph7 mph7.7 mph8.8 mph10.8 mph9.3 mph9 mph8.1 mph7 mph5.5 mph4.6 mph4.4 mph4.5 mph4.8 mph5.1 mph5.4 mph4.6 mph3.7 mph3.7 mph3.7 mph3.7 mph4.1 mph4.3 mph5 mph6.4 mph7.9 mph9 mph9.4 mph
Wind
Direction
231°
SW
231°
SW
235°
SW
233°
SW
234°
SW
234°
SW
227°
SW
211°
SSW
210°
SSW
214°
SW
217°
SW
225°
SW
230°
SW
232°
SW
225°
SW
211°
SSW
202°
SSW
200°
SSW
194°
SSW
196°
SSW
206°
SSW
217°
SW
225°
SW
229°
SW
230°
SW
225°
SW
222°
SW
217°
SW
219°
SW
222°
SW
212°
SSW
212°
SSW
205°
SSW
199°
SSW
202°
SSW
203°
SSW
203°
SSW
194°
SSW
186°
S
198°
SSW
197°
SSW
194°
SSW
211°
SSW
218°
SW
225°
SW
238°
WSW
241°
WSW
242°
WSW

Daily Forecast

Date High Low Precip. Humidity
Today
May 29

Clouds
69 °F
59 °F
0%
67%
Thursday
May 30

Clear
67 °F
59 °F
0%
64%
Friday
May 31

Clear
67 °F
60 °F
0%
68%
Saturday
Jun 1

Clear
66 °F
59 °F
0%
64%
Sunday
Jun 2

Clouds
65 °F
59 °F
0%
65%
Monday
Jun 3

Clouds
66 °F
61 °F
0%
64%
Tuesday
Jun 4

Clear
68 °F
61 °F
0%
65%
Wednesday
Jun 5

Clouds
68 °F
63 °F
0%
67%
Thursday
Jun 6

Clear
68 °F
62 °F
0%
71%
Friday
Jun 7

Clear
68 °F
62 °F
0%
64%
Saturday
Jun 8

Clear
68 °F
63 °F
0%
68%
Sunday
Jun 9

Clear
70 °F
64 °F
0%
59%
Monday
Jun 10

Clear
68 °F
62 °F
0%
67%
Tuesday
Jun 11

Clouds
65 °F
61 °F
0%
68%
Wednesday
Jun 12

Clouds
65 °F
61 °F
0%
65%
Thursday
Jun 13

Clear
67 °F
61 °F
0%
62%

Temperature 8-14 Day Outlook



Precipitation 8-14 Day Outlook






About Us
Contact Us
Site Map
Search Site
Advertise With Us
   
SanDiego.USCoast.info
THE SAN DIEGO WEBSITE

Copyright 2024, Coastal Town
Privacy    |    Legal